This is the latest recevied weather packets stored in our database for station/object KQ4HEI. If no packets are shown the sender has not sent any weather packets the latest 1 day(s).
| Time | Temp. | Humidity | Pressure | Rain* | Wind** | Luminosity | Snow |
|---|---|---|---|---|---|---|---|
| 1777984468 | 16.11° C | 88% | 1014.7 hPa | 0 mm | 0.45 m/s, 127° | - | - |
| 1777983268 | 12.22° C | 99% | 1014.6 hPa | 0 mm | 0 m/s | - | - |
| 1777982069 | 8.89° C | 99% | 1014.6 hPa | 0 mm | 0 m/s | - | - |
| 1777980868 | 7.78° C | 99% | 1014.1 hPa | 0 mm | 0 m/s | - | - |
| 1777979668 | 7.22° C | 99% | 1014 hPa | 0 mm | 0 m/s | - | - |
| 1777978469 | 7.78° C | 99% | 1014.1 hPa | 0 mm | 0 m/s | - | - |
| 1777977269 | 7.78° C | 99% | 1013.9 hPa | 0 mm | 0 m/s | - | - |
| 1777976069 | 7.78° C | 99% | 1014.1 hPa | 0 mm | 0 m/s | - | - |
| 1777974869 | 7.22° C | 99% | 1014.1 hPa | 0 mm | 0 m/s | - | - |
| 1777973670 | 7.22° C | 99% | 1013.2 hPa | 0 mm | 0 m/s | - | - |
| 1777972470 | 7.22° C | 99% | 1013.1 hPa | 0 mm | 0 m/s | - | - |
| 1777971269 | 7.22° C | 99% | 1013.1 hPa | 0 mm | 0 m/s | - | - |
| 1777970070 | 7.22° C | 99% | 1013.1 hPa | 0 mm | 0 m/s | - | - |
| 1777968870 | 7.22° C | 99% | 1012.9 hPa | 0 mm | 0 m/s | - | - |
| 1777967670 | 7.22° C | 99% | 1013.1 hPa | 0 mm | 0 m/s | - | - |
| 1777966470 | 7.78° C | 99% | 1013.1 hPa | 0 mm | 0 m/s | - | - |
| 1777965269 | 7.78° C | 99% | 1013.2 hPa | 0 mm | 0 m/s | - | - |
| 1777964069 | 8.33° C | 99% | 1013.4 hPa | 0 mm | 0 m/s | - | - |
| 1777962870 | 8.33° C | 99% | 1013.7 hPa | 0 mm | 0 m/s | - | - |
| 1777961669 | 8.89° C | 99% | 1013.6 hPa | 0 mm | 0 m/s | - | - |
| 1777960469 | 8.89° C | 99% | 1013.9 hPa | 0 mm | 0 m/s | - | - |
| 1777959270 | 8.89° C | 96% | 1013.6 hPa | 0 mm | 0 m/s | - | - |
| 1777958069 | 10° C | 97% | 1013.6 hPa | 0 mm | 0 m/s | - | - |
| 1777956869 | 10° C | 98% | 1013.7 hPa | 0 mm | 0 m/s | - | - |
| 1777955669 | 10.56° C | 97% | 1014.1 hPa | 0 mm | 0 m/s | - | - |
* Rain latest hour (hover to see other rain measurements)
** Current wind speed in m/s (hover to see current wind gust speed)